CZ-6A DEB, 100175

Orbit data source: Space-Track

CZ-6A DEB, 100175 is space debris in LEO originally from a launch on Thu, 30 Jul 2026 UTC launched from the Taiyaun Space Center, China (TSC). Debris objects in space refer to the collection of defunct objects orbiting the Earth. Examples of debris include non-operational satellites, rocket bodies, and fragments generated from explosions, collisions, or faulty payload assembly.

Loading next visibility...
Identifier
100175, 2026-173B
Orbit
LEO
Country
Flag of CNCN / PRC
Related business
Manufacturer
SAST
Mission
Spacecraft
Bus & Motor
TJS26B, Unknown motor
Mass
Unknown
Launch date (UTC)
2026-07-30 (2 weeks ago)
Launch vehicle
Unknown
Launch site
Taiyaun Space Center, China (TSC)
Object type
Payload
Rocket body
Debris
Shape & HBR
BOX + 2 PAN, 1.1 m
Radar Cross Section
Large (>1 m²)

Expand to show TLE details & history
Last TLE update: 8 hours ago

TLE from 8 hours ago
0 CZ-6A DEB
1 A0175U 26173B   26227.58413885  .00000094  00000-0  37786-3 0  9990
2 A0175  64.7877 236.7819 0007367 231.8039 128.2327 13.27999875  2208
Epoch: 2026-08-15T14:01Z
TLE epoch observation values (Epoch: 2026-08-15T14:01:09.596Z)
Latitude
-0.00009°
Longitude
62.49896°
Altitude
1,159.613 km
Speed
7.272 km/s
True Right ascension
15h 47m 07s
True Declination
0° 00' 00"
Sunlit
Object was in daylight at epoch
Visualization orbit readout
Latitude
Unknown
Longitude
Unknown
Altitude
Unknown
Speed
Unknown
Apparent Right ascension
Unknown
Apparent Declination
Unknown
Sunlit
N/A
Visualization observer readout
Local Sidereal Time
12:26:43
Azimuth
Unknown
Elevation
Unknown
Doppler factor
Unknown
Orbital elements
Apogee altitude
1,158.538 km
Perigee altitude
1,147.442 km
Semi-major axis
7,531.127 km
Eccentricity
0.00074
Inclination
64.7877°
RAAN
236.7819°
Arg. of periapsis
231.8039°
True anomaly
128.29897°
Mean anomaly
128.2327°
Eccentric anomaly
128.26584°
Mean motion
3.32088 °/min
Orbital period
108.4 mins
BSTAR
0.00037786
Loading maneuver chart data...
Computing Atmospheric mass density...
Loading historical data...
Loading historical data...
Loading historical data...
Loading historical data...
Loading historical data...
Loading historical data...
Loading historical data...
Other satellites on launch #173 in the year 2026 (2026-07-30 UTC)

Documentation

Showing up to 5 results
|